STARLINK-5062 (55637 NORAD) Tracking and Keplerian Element Data

This shows tracking and keplerian element data for the satellite.

Feedback or suggestion? Click here.




ElementValue
Catalog55637
NameSTARLINK-5062
Epoch Orbit626
Epoch Day85.1721058
Epoch Year2023
RAAN47.5968
Inclination70.0027
Eccentricity0.0003916
Argument of Perigee268.2199
Mean Anonmoly91.8548
Mean Motion15.69922412
Decay Rate2.19E-06
L11 55637U 23021K 23085.17210580 .00000219 00000+0 35949-5 0 9992
L22 55637 70.0027 47.5968 0003916 268.2199 91.8548 15.69922412 6269



Live tracking and technical data element details for STARLINK-5062 (NORAD 55637). STARLINK-5062 can be tracked NOW for your location showing map with azimuth and elevation plus other details from your city location.







IsCatalogInMostPopularTable: catalog: 55637, numindb: 2
Update: records affected: 1



GetName: 55637 STARLINK-5062

Hit Count: updated at: Tue, 28 Mar 2023 02:20:51 GMT